Weather History for Lamoni, IA

Change the Weather History Date:

Sunday, July 29, 2012

  Actual Average Record
Temperature  
Mean Temperature 81 °F 75 °F  
Max Temperature 96 °F 85 °F 99 °F (1999)
Min Temperature 66 °F 66 °F 52 °F (2010)
Degree Days  
Heating Degree Days 0 0  
Month to date heating degree days 0 0  
Since 1 June heating degree days 10 19  
Since 1 July heating degree days 0 0  
Cooling Degree Days 16 10  
Month to date cooling degree days 492 293  
Year to date cooling degree days 920 540  
Since 1 June cooling degree days 763 486  
Growing Degree Days 31 (Base 50)    
Moisture  
Dew Point 64 °F    
Average Humidity 60    
Maximum Humidity 84    
Minimum Humidity 35    
Precipitation  
Precipitation 0.18 in 0.15 in 2.29 in (2011)
Month to date precipitation 1.19 4.69  
Year to date precipitation 17.03  
Sea Level Pressure  
Sea Level Pressure 29.94 in    
Wind  
Wind Speed 8 mph (SE)    
Max Wind Speed 22 mph    
Max Gust Speed 29 mph    
Visibility 10 miles    
Events Rain , Thunderstorm    
T = Trace of Precipitation, MM = Missing Value Source: NWS Daily Summary

Daily Weather History Graph

Daily Weather History Graph

Search for Another Location

Airport:

Trip Planner

Search our weather history database for the weather conditions in past years. The results will help you decide how hot, cold, wet, or windy it might be!

Date:

Astronomy

Jul. 29, 2012 Rise Set
Actual Time 6:10 AM CDT 8:33 PM CDT
Civil Twilight 5:39 AM CDT 9:04 PM CDT
Nautical Twilight 5:00 AM CDT 9:42 PM CDT
Astronomical Twilight 4:18 AM CDT 10:24 PM CDT
Moon 5:40 PM CDT (7/29) 2:24 AM CDT (7/29)
Length of Visible Light 15h 25m
Length of Day
14h 23m
Waxing Gibbous, 85% of the Moon is Illuminated
Jul 29
Waxing Gibbous
Aug 1
Full
Aug 9
Last Quarter
Aug 17
New
Aug 24
First Quarter

Hourly Weather History & Observations

Time (CDT) Temp. Heat Index Dew Point Humidity Pressure Visibility Wind Dir Wind Speed Gust Speed Precip Events Conditions
12:18 AM 71.6 °F - 59.0 °F 64% 30.04 in 10.0 mi SSE 6.9 mph - 0.00 in   Mostly Cloudy
12:53 AM 72.0 °F - 59.0 °F 64% 29.97 in 10.0 mi SSE 11.5 mph - 0.01 in   Partly Cloudy
1:53 AM 70.0 °F - 60.1 °F 71% 29.98 in 10.0 mi South 8.1 mph - 0.02 in   Scattered Clouds
2:13 AM 69.8 °F - 62.6 °F 78% 30.00 in 10.0 mi South 15.0 mph - 0.00 in Rain , Thunderstorm Light Rain
2:53 AM 70.0 °F - 61.0 °F 73% 29.97 in 10.0 mi East 11.5 mph 21.9 mph 0.02 in Rain , Thunderstorm Light Thunderstorms and Rain
3:41 AM 66.2 °F - 62.6 °F 88% 30.03 in 10.0 mi East 6.9 mph - 0.07 in   Mostly Cloudy
3:53 AM 66.9 °F - 63.0 °F 87% 29.98 in 10.0 mi SE 10.4 mph - 0.08 in   Mostly Cloudy
4:49 AM 68.0 °F - 62.6 °F 83% 29.99 in 10.0 mi SE 8.1 mph - 0.06 in Rain , Thunderstorm Light Rain
4:53 AM 68.0 °F - 63.0 °F 84% 29.95 in 10.0 mi SE 9.2 mph - 0.06 in Thunderstorm Mostly Cloudy
5:04 AM 66.2 °F - 62.6 °F 88% 29.98 in 10.0 mi ESE 6.9 mph - N/A   Mostly Cloudy
5:53 AM 66.9 °F - 64.0 °F 90% 29.99 in 10.0 mi Variable 4.6 mph - N/A   Scattered Clouds
6:53 AM 68.0 °F - 63.0 °F 84% 30.00 in 10.0 mi SSE 13.8 mph - N/A   Clear
7:53 AM 70.0 °F - 64.0 °F 81% 30.00 in 10.0 mi SSE 10.4 mph 19.6 mph N/A   Partly Cloudy
8:53 AM 73.0 °F - 64.9 °F 76% 29.99 in 10.0 mi SSE 17.3 mph 25.3 mph N/A   Clear
9:53 AM 75.9 °F - 64.9 °F 69% 29.97 in 10.0 mi SSE 16.1 mph 25.3 mph N/A   Clear
10:53 AM 81.0 °F 82.7 °F 64.9 °F 58% 29.95 in 10.0 mi South 18.4 mph 28.8 mph N/A   Clear
11:53 AM 82.9 °F 84.6 °F 64.9 °F 54% 29.95 in 10.0 mi SSE 15.0 mph 25.3 mph N/A   Clear
12:53 PM 84.0 °F 86.5 °F 66.9 °F 56% 29.92 in 10.0 mi SSE 12.7 mph 21.9 mph N/A   Clear
1:53 PM 89.1 °F 91.3 °F 66.0 °F 46% 29.90 in 10.0 mi SSW 15.0 mph 20.7 mph N/A   Clear
2:53 PM 91.0 °F 94.3 °F 66.9 °F 45% 29.89 in 10.0 mi SW 11.5 mph 16.1 mph N/A   Clear
3:53 PM 91.9 °F 94.5 °F 66.0 °F 42% 29.88 in 10.0 mi SSW 4.6 mph - N/A   Clear
4:53 PM 93.9 °F 96.1 °F 64.9 °F 38% 29.86 in 10.0 mi Variable 3.5 mph - N/A   Clear
5:53 PM 96.1 °F 98.8 °F 64.9 °F 36% 29.86 in 10.0 mi NNW 4.6 mph - N/A   Clear
6:53 PM 93.9 °F 95.6 °F 64.0 °F 37% 29.85 in 10.0 mi NNE 4.6 mph - N/A   Clear
7:53 PM 91.0 °F 95.2 °F 68.0 °F 47% 29.85 in 10.0 mi Calm Calm - N/A   Clear
8:53 PM 84.0 °F 86.5 °F 66.9 °F 56% 29.86 in 10.0 mi NNE 5.8 mph - 0.01 in   Clear
9:53 PM 82.0 °F 84.5 °F 66.9 °F 60% 29.88 in 10.0 mi Calm Calm - 0.03 in   Clear
10:53 PM 84.0 °F 86.5 °F 66.9 °F 56% 29.88 in 10.0 mi Calm Calm - 0.01 in   Clear
11:53 PM 80.1 °F 82.7 °F 68.0 °F 67% 29.88 in 10.0 mi East 3.5 mph - N/A   Clear